Location: Stonelick Lake State Park
(39.2170°N, 84.0850°W)
Time: 15:15:48
(UTC-04:00)

Daily predictions for brighter satellites

Satellite Brightness Start Highest point End
(mag) Time Altitude Azimuth Time Altitude Azimuth Time Altitude Azimuth
Cosmos 1461 3.1 21:19:58 10° SSW 21:24:39 72° ESE 21:29:14 10° NE
Cosmos 1939 Rocket 3.8 21:22:35 10° SE 21:25:56 29° ENE 21:29:19 10° N
Atlas Centaur 2 2.8 21:24:04 10° SSW 21:26:25 17° SSE 21:28:51 10° SE
Cosmos 1703 Rocket 4.2 21:22:32 10° NNW 21:26:56 60° W 21:31:20 10° S
Cosmos 1782 4.4 21:26:37 10° NNE 21:29:37 20° ENE 21:32:36 10° ESE
Cosmos 2263 Rocket 2.7 21:26:15 10° SSW 21:31:53 67° WNW 21:37:32 10° NNE
CENTAUR R/B 3.3 21:27:27 10° NNW 21:35:13 62° NE 21:43:26 10° SE
FENGYUN 3A 4.2 21:30:06 10° S 21:35:27 62° W 21:40:49 10° NNW
SL-27 R/B 4.2 21:37:20 10° NNE 21:40:04 20° ENE 21:42:35 11° ESE
SL-8 R/B 3.8 21:35:37 10° SW 21:40:20 58° SE 21:45:04 10° ENE
NOSS 2-2 (D) 3.8 21:38:54 10° S 21:42:47 44° ESE 21:47:07 10° NE
Coronas F rocket 1.5 21:41:55 10° S 21:44:28 47° E 21:47:03 10° NNE
Cosmos 2184 Rocket 4.0 21:40:17 10° S 21:46:19 62° E 21:52:24 10° NNE
deb Chang Zheng 4 3.8 21:44:28 10° NNE 21:48:48 52° E 21:53:06 10° S
YAOGAN 11 4.4 21:47:34 10° S 21:52:03 74° WSW 21:56:36 10° NNW
Cosmos 1606 4.3 21:49:14 10° NNE 21:52:15 21° ENE 21:54:20 14° ESE
Cosmos 1624 Rocket 4.0 21:51:58 10° S 21:57:10 68° ESE 22:02:27 10° NNE
NOSS 2-2 (C) 3.4 21:53:23 10° SSW 21:57:23 66° ESE 22:01:58 10° NE
Meteor 2-10 Rocket 3.8 21:52:34 10° N 21:58:26 81° E 22:04:08 10° SSE
Cosmos 1892 2.7 21:54:58 10° S 21:58:46 89° W 22:02:38 10° N
Envisat 3.0 21:54:04 10° SSE 21:59:05 67° ENE 22:04:08 10° N
H-2A R/B 4.1 21:56:43 10° E 21:59:09 13° ENE 22:01:35 10° NNE
SL-08 ROCKET BODY 4.4 21:53:31 10° S 21:59:32 71° E 22:05:29 10° NNE
USA 186 4.2 21:57:58 10° SW 22:00:16 20° W 22:02:41 10° NW
Cosmos 1733 Rocket 3.0 21:58:38 10° S 22:03:03 78° E 22:07:28 10° N
Meteor 2-6 Rocket 4.5 22:00:46 10° N 22:06:40 60° ENE 22:11:36 14° SSE
CZ-4 SHROUD 4.0 22:08:16 23° ESE 22:09:35 34° ENE 22:12:26 10° N
SPOT 1/Viking Rocket 4.3 22:10:27 18° SE 22:13:41 37° ENE 22:18:26 10° N
ERBS 2.7 22:11:26 10° NW 22:14:52 55° NE 22:16:36 25° ESE
NOSS 2-2 (E) 3.8 22:12:31 10° SW 22:16:37 72° NW 22:21:26 10° NNE
Cosmos 407 Rocket 3.8 22:13:29 10° N 22:18:38 52° ENE 22:21:52 22° SE
Cosmos 1452 Rocket 3.9 22:16:33 12° S 22:21:01 42° ESE 22:25:58 10° NNE
Cosmos 1238 Rocket 3.5 22:18:45 10° NNE 22:21:27 26° E 22:21:59 25° E
Cosmos 2074 Rocket 4.4 22:15:43 10° SSW 22:21:57 66° W 22:28:13 10° N
SPOT 5 3.0 22:19:21 17° SSE 22:23:29 82° ENE 22:28:51 10° N
Nimbus 7 Rocket 4.4 22:17:54 10° NNE 22:23:52 87° WNW 22:29:51 10° SSW
COSMOS 2406 3.3 22:21:06 10° NNW 22:26:52 82° WSW 22:30:59 20° SSE
H-2A R/B 2.5 22:24:05 13° S 22:27:55 58° WSW 22:32:09 10° NNW
EO 1 Delta rocket 4.4 22:21:23 10° N 22:28:00 87° W 22:33:13 10° SSW
ERS-1 Rocket 4.1 22:23:18 10° S 22:28:02 41° W 22:32:48 10° NNW
Cosmos 1190 Rocket 3.9 22:24:03 10° NNW 22:29:17 81° ENE 22:32:30 24° SSE
PSLV R/B 2.9 22:29:27 40° SSE 22:30:23 81° ENE 22:33:21 10° N
MetOp-B 4.1 22:28:34 20° SSE 22:32:18 80° ENE 22:37:40 10° N
Cosmos 1862 3.3 22:33:23 26° SSE 22:35:31 64° E 22:39:34 10° NNE
Nadezhda 3 Rocket 4.0 22:31:09 10° N 22:37:30 74° E 22:41:46 22° SSE
Terra 3.3 22:37:59 20° E 22:39:21 22° ENE 22:43:00 10° NNE
ARGOS 3.3 22:38:34 28° SE 22:41:16 58° ENE 22:46:32 10° N
ATLAS 5 CENTAUR R/B 2.6 22:37:01 10° NW 22:43:04 69° WSW 22:46:55 25° SSE
Okean 2 Rocket 3.4 22:42:45 35° SE 22:43:58 44° E 22:48:10 10° NNE
PSLV R/B 3.2 22:42:42 10° WNW 22:46:10 73° SSW 22:46:43 58° SE
Cosmos 2278 Rocket 2.3 22:43:31 20° S 22:47:17 53° ESE 22:52:48 10° NNE
Sich 1 Rocket 4.2 22:42:53 10° SSW 22:47:23 59° W 22:51:57 10° N
Abrixas rocket 3.9 22:46:46 10° W 22:49:31 23° SW 22:49:51 22° SSW
Cosmos 1844 3.7 22:43:54 10° SSW 22:49:39 86° ESE 22:55:29 10° NNE
USA 234 3.2 22:43:59 10° NE 22:50:25 60° SE 22:56:50 10° SSW
Cosmos 2341 Rocket 3.9 22:46:29 17° S 22:51:36 82° E 22:57:54 10° N
CZ-4B R/B 3.3 22:46:50 10° NNE 22:51:51 80° ESE 22:54:54 23° S
CZ-4C R/B 4.0 22:54:26 35° E 22:54:46 36° ENE 22:58:24 10° N
Cosmos 1825 2.2 22:54:31 37° SSW 22:55:57 82° W 22:59:47 10° N
Cosmos 676 Rocket 3.9 22:53:46 10° NNW 22:58:59 89° ENE 23:01:02 38° SSE
Cosmos 1844 Rocket 3.3 22:55:23 10° SW 23:00:56 57° WNW 23:06:31 10° NNE
Timation 2 Rocket 4.5 22:57:28 10° NNW 23:03:11 43° ENE 23:05:20 32° ESE
Meteor 1-27 Rocket 4.0 22:58:00 10° NNW 23:03:31 63° W 23:06:41 25° SSW
Cosmos 1184 Rocket 2.7 23:04:01 81° SW 23:04:07 84° WNW 23:07:28 10° N
Cosmos 1954 Rocket 3.9 23:01:29 10° NNW 23:06:43 81° ENE 23:08:21 45° SSE
Cosmos 1174 3.4 23:03:56 10° NNW 23:06:47 63° N 23:06:47 63° N
Cosmos 2082 Rocket 3.5 23:02:57 10° N 23:07:49 28° ENE 23:09:37 24° E
Cosmos 1782 Rocket 3.7 23:07:23 34° SSW 23:09:14 75° W 23:13:43 10° N
BREEZE-M DEB 4.4 23:05:56 10° WSW 23:09:57 73° NW 23:09:57 73° NW
COSMOS 2487 2.5 23:10:18 10° NNW 23:13:44 72° NE 23:13:44 72° NE
Atlas Centaur 2 3.5 23:11:35 10° SW 23:12:00 12° SW 23:12:00 12° SW
SL-27 R/B 4.4 23:12:21 10° NW 23:15:18 23° W 23:16:20 20° SW
YAOGAN 6 4.1 23:14:36 25° SW 23:15:33 29° W 23:18:40 10° NW
Cosmos 1408 3.7 23:15:26 28° SW 23:16:48 41° W 23:20:18 10° N
Cosmos 2297 3.9 23:16:56 45° SE 23:17:33 47° ESE 23:23:02 10° NE
IGS 5A 3.9 23:18:00 45° ENE 23:18:00 45° ENE 23:21:59 10° N
CZ-4 R/B 3.9 23:14:55 10° N 23:19:37 72° WNW 23:21:34 34° SSW
DNEPR-1 R/B 4.4 23:14:27 10° NNW 23:19:40 45° NE 23:20:38 39° E
SL-8 Rocket 3.9 23:17:09 35° S 23:19:59 81° E 23:26:15 10° N
APEX 4.1 23:22:48 40° ENE 23:22:48 40° ENE 23:26:14 10° NNE
CENTAUR R/B 4.3 23:18:47 10° NW 23:25:40 33° WSW 23:30:41 18° SSW
SL-08 RB Rocket 4.1 23:24:57 45° SSW 23:26:02 59° W 23:30:36 10° NNW
Cosmos 1975 Rocket 3.4 23:22:21 10° NNW 23:26:36 57° W 23:27:24 48° SW
CARTOSAT-1 3.5 23:27:44 70° E 23:27:50 70° ENE 23:32:09 10° N
H-2A R/B 2.1 23:36:42 57° S 23:37:51 83° WSW 23:43:14 10° NNW
Cosmos 1242 Rocket 3.3 23:34:18 10° NNW 23:37:28 50° WNW 23:37:28 50° WNW
Cosmos 1536 Rocket 3.9 23:34:57 10° N 23:39:02 56° ENE 23:39:02 56° ENE
Cosmos 1023 Rocket 4.5 23:40:03 10° NNW 23:45:07 67° WSW 23:45:41 61° SW
Spot 2 4.5 23:41:56 10° NNE 23:45:29 53° NE 23:45:29 53° NE
Cosmos 1420 Rocket 4.5 23:46:17 33° SW 23:48:31 58° WNW 23:53:41 10° N
Cosmos 2151 Rocket 3.6 23:49:00 78° WNW 23:49:00 78° WNW 23:53:30 10° N
Meteor 2-8 Rocket 4.3 23:44:41 10° N 23:50:52 80° E 23:51:55 62° SSE
Cosmos 864 Rocket 4.4 23:51:03 52° SSW 23:52:40 83° W 23:58:50 10° N
CZ-3C R/B 4.5 23:53:00 10° SW 23:55:54 12° SW 23:55:54 12° SW
